Location: Bakov nad Jizerou
(50.4784°N, 14.9394°E)
Time: 14:11:05
(UTC+00:00)

CZ-2C R/B - Pass Details

Date: 16 June 2021
Orbit: 640 x 704 km, 98.3° (Epoch: 03 August)

Event Time Altitude Azimuth Distance (km) Brightness Sun altitude
Rises 20:03:42 0° 15° (NNE) 3,097 7.7 -6.4°
Reaches altitude 10° 20:05:58 10° 16° (NNE) 2,179 6.9 -6.6°
Maximum altitude 20:10:46 84° 103° (ESE) 716 3.8 -7.1°
Drops below altitude 10° 20:15:33 10° 194° (SSW) 2,168 6.0 -7.6°
Sets 20:17:47 0° 195° (SSW) 3,080 6.8 -7.8°
